Weather History for Marshfield, WI

Change the Weather History Date:

Wednesday, October 5, 2011

  Actual Average Record
Temperature  
Mean Temperature 63 °F -  
Max Temperature 80 °F 63 °F 83 °F (1922)
Min Temperature 46 °F 39 °F 18 °F (1952)
Degree Days  
Heating Degree Days 2    
Growing Degree Days 13 (Base 50)    
Moisture  
Dew Point 48 °F    
Average Humidity 63    
Maximum Humidity 90    
Minimum Humidity 34    
Precipitation  
Precipitation 0.00 in - - ()
Sea Level Pressure  
Sea Level Pressure 30.17 in    
Wind  
Wind Speed 3 mph (SSE)    
Max Wind Speed 13 mph    
Max Gust Speed -    
Visibility 10 miles    
Events      
Averages and records for this station are not official NWS values.
T = Trace of Precipitation, MM = Missing Value Source: NWS Daily Summary

Daily Weather History Graph

Daily Weather History Graph

Search for Another Location

Airport:

Trip Planner

Search our weather history database for the weather conditions in past years. The results will help you decide how hot, cold, wet, or windy it might be!

Date:

Astronomy

Oct. 05, 2011 Rise Set
Actual Time 7:03 AM CDT 6:34 PM CDT
Civil Twilight 6:34 AM CDT 7:03 PM CDT
Nautical Twilight 6:00 AM CDT 7:37 PM CDT
Astronomical Twilight 5:26 AM CDT 8:11 PM CDT
Moon 3:27 PM CDT (10/5) 12:35 AM CDT (10/5)
Length of Visible Light 12h 29m
Length of Day
11h 31m
Waxing Gibbous, 66% of the Moon is Illuminated
Oct 5
Waxing Gibbous
Oct 11
Full
Oct 19
Last Quarter
Oct 26
New
Nov 2
First Quarter

Hourly Weather History & Observations

Time (CDT) Temp. Dew Point Humidity Pressure Visibility Wind Dir Wind Speed Gust Speed Precip Events Conditions
12:54 AM 52.0 °F 48.0 °F 86% 30.19 in 10.0 mi Calm Calm - N/A   Clear
1:54 AM 51.1 °F 46.9 °F 86% 30.19 in 10.0 mi Calm Calm - N/A   Clear
2:54 AM 50.0 °F 46.9 °F 89% 30.19 in 10.0 mi Calm Calm - N/A   Clear
3:54 AM 48.9 °F 46.0 °F 90% 30.19 in 10.0 mi Calm Calm - N/A   Clear
4:54 AM 48.9 °F 46.0 °F 90% 30.19 in 10.0 mi Calm Calm - N/A   Clear
5:54 AM 50.0 °F 46.0 °F 86% 30.19 in 10.0 mi Calm Calm - N/A   Clear
6:54 AM 46.9 °F 44.1 °F 90% 30.21 in 10.0 mi SE 3.5 mph - N/A   Clear
8:54 AM 57.0 °F 48.9 °F 74% 30.21 in 10.0 mi South 4.6 mph - N/A   Clear
9:54 AM 63.0 °F 50.0 °F 63% 30.20 in 10.0 mi South 8.1 mph - N/A   Clear
10:54 AM 69.1 °F 51.1 °F 53% 30.20 in 10.0 mi South 6.9 mph - N/A   Clear
11:54 AM 73.9 °F 48.9 °F 41% 30.18 in 10.0 mi South 8.1 mph - N/A   Clear
12:54 PM 75.9 °F 48.0 °F 37% 30.17 in 10.0 mi South 12.7 mph - N/A   Clear
1:54 PM 79.0 °F 48.0 °F 34% 30.15 in 10.0 mi South 9.2 mph - N/A   Clear
2:54 PM 80.1 °F 51.1 °F 36% 30.14 in 10.0 mi South 8.1 mph - N/A   Clear
4:54 PM 78.1 °F 48.0 °F 35% 30.13 in 9.0 mi SSE 9.2 mph - N/A   Clear
5:54 PM 73.9 °F 48.0 °F 40% 30.13 in 10.0 mi SSE 6.9 mph - N/A   Clear
6:54 PM 69.1 °F 46.9 °F 45% 30.14 in 10.0 mi South 5.8 mph - N/A   Clear
8:54 PM 64.0 °F 46.9 °F 54% 30.16 in 10.0 mi SE 4.6 mph - N/A   Clear
9:54 PM 61.0 °F 46.9 °F 60% 30.17 in 10.0 mi SSE 3.5 mph - N/A   Clear
10:54 PM 57.9 °F 46.9 °F 67% 30.17 in 10.0 mi East 4.6 mph - N/A   Clear
11:54 PM 54.0 °F 46.9 °F 77% 30.17 in 10.0 mi Calm Calm - N/A   Clear